Orbital Elements at Epoch 2459200.5 (2020-Dec-17.0) TDB
Reference: JPL 6 (heliocentric ecliptic J2000)
Element | Value | Uncertainty (1-sigma) | Units |
e | .1963481749885961 | 7.212e-08 | |
a | 2.457929736323188 | 3.631e-08 | au |
q | 1.975319718345929 | 1.8207e-07 | au |
i | 1.793095472304799 | 1.137e-05 | deg |
node | 186.6943345032853 | 0.00034914 | deg |
peri | 139.0113155125438 | 0.0003518 | deg |
M | 16.9291502502787 | 5.8023e-05 | deg |
tp | 2459134.311082069811 (2020-Oct-11.81108207) | 0.00022568 | TDB |
period | 1407.513673314797 3.85 | 3.1189e-05 8.539e-08 | d yr |
n | .2557701618288182 | 5.6676e-09 | deg/d |
Q | 2.940539754300447 | 4.344e-08 | au |
|
| | Orbit Determination Parameters
Additional Information
|